Preview of NWS' New Version of Forecast
This preview is not operational and should not be used for support decisions.

Regional Weather Roundup (RWR)

Issued by National Weather Service (NWS)

                            
000
ASUS45 KCYS 260110
RWRWY 

WYOMING REGIONAL WEATHER ROUNDUP
NATIONAL WEATHER SERVICE CHEYENNE WY
700 PM MDT TUE JUN 25 2019

NOTE:  "FAIR" INDICATES FEW OR NO CLOUDS BELOW 12,000 FEET
WITH NO SIGNIFICANT WEATHER AND/OR OBSTRUCTIONS TO VISIBILITY.

WYZ001-260200-
...YELLOWSTONE NATIONAL PARK...
  
CITY           SKY/WX    TMP DP  RH WIND       PRES   REMARKS
LK YELLOWSTONE   N/A     60  29  30 VRB7      30.06S                  
W YELLOWSTONE  NOT AVBL                                               

$$
WYZ002>013-054>058-071-098>099-260200-
...NORTHERN WYOMING...
  
CITY           SKY/WX    TMP DP  RH WIND       PRES   REMARKS
JACKSON        PTSUNNY   68  46  45 W6        29.97F                  
CODY           PTSUNNY   61  48  62 N16G24    29.94R                  
GREYBULL       PTSUNNY   76  43  30 N23G30    29.79R                  
WORLAND        MOSUNNY   78  44  29 N7        29.77S                  
SHERIDAN       CLOUDY    64  49  57 NW15G26   29.90R                  
BUFFALO        CLOUDY    70  50  49 NW15G26   29.91R                  
GILLETTE       PTSUNNY   72  50  45 SE10      29.83S                  
HULETT         FAIR      72  54  53 E12G17    29.86F                  
NEWCASTLE      FAIR      75  37  25 S12       29.86F                  

$$
WYZ014>020-022>026-101>103-260200-
...CENTRAL WYOMING...
  
CITY           SKY/WX    TMP DP  RH WIND       PRES   REMARKS
BIG PINEY      MOSUNNY   73  32  22 W13G24    30.03S                  
PINEDALE       PTSUNNY   70  27  19 W10       30.05R                  
DUBOIS         FAIR      68  18  14 W16G28    30.00R                  
LANDER         MOSUNNY   79  31  17 SW13G30   29.87S                  
RIVERTON       MOSUNNY   82  31  15 SW13      29.87S                  
CASPER         CLOUDY    72  40  31 S22G28    29.89F                  
DOUGLAS        CLOUDY    71  40  32 SW17G29   29.93F                  

$$
WYZ021-027>030-104>119-260200-
...SOUTHERN WYOMING...
  
CITY           SKY/WX    TMP DP  RH WIND       PRES   REMARKS
EVANSTON       PTSUNNY   74  28  18 SW16      30.02F                  
KEMMERER       SUNNY     73  28  19 W16       30.03F                  
FORT BRIDGER   NOT AVBL                                               
ROCK SPRINGS   PTSUNNY   75  31  19 SW10      30.00F                  
DIXON          FAIR      71  36  27 SE5       30.08R                  
RAWLINS        LGT RAIN  69  29  22 W23G46    30.04F                  
SARATOGA       FAIR      66  37  34 SE8       30.11S                  
LARAMIE        NOT AVBL                                               
CHEYENNE       CLOUDY    67  47  48 CALM      30.05                   
TORRINGTON     CLOUDY    76  49  38 S18       29.88S THUNDER          
PINE BLUFFS    PTSUNNY   70  45  40 E6        30.00R                  

$$